Regional Weather Roundup
Issued by NWS

Home | Current Version | Previous Version | Text Only | Print | Product List | Glossary Off
Versions: 1 2 3 4 5 6 7 8 9 10 11 12 13 14 15 16 17 18 19 20 21 22 23 24 25 26 27 28 29 30 31 32 33 34 35 36 37 38 39 40 41 42 43 44 45 46 47 48 49 50

000
ASUS43 KFSD 230710
RWRSD

WEATHER ROUNDUP FOR SOUTH DAKOTA
NATIONAL WEATHER SERVICE SIOUX FALLS SD
100 AM CST THU FEB 23 2017

NOTE: "FAIR" INDICATES FEW OR NO CLOUDS BELOW 12,000 FEET WITH NO
SIGNIFICANT WEATHER AND/OR OBSTRUCTIONS TO VISIBILITY.


SDZ001>005-009-010-012>017-230800-
NORTHWEST AND NORTH CENTRAL SOUTH DAKOTA

CITY           SKY/WX    TMP DP  RH WIND       PRES   REMARKS
BUFFALO          N/A     29  27  92 E10       29.86S WCI  20
FAITH            N/A     30  30 100 NE8       29.91F WCI  22
MOBRIDGE       CLOUDY    33  26  75 CALM      29.96R
$$

SDZ012>016-024>037-041>051-057-063-072>074-230800-
SOUTHWEST AND SOUTH CENTRAL SOUTH DAKOTA

CITY           SKY/WX    TMP DP  RH WIND       PRES   REMARKS
RAPID CTY ARPT CLOUDY    31  26  82 NE8       29.91R WCI  23
PIERRE         CLOUDY    32  26  78 NE15      29.92F WCI  22
CUSTER         CLOUDY    24  22  91 NE8       29.79F FOG     WCI  15
ELLSWORTH AFB  CLOUDY    30  28  90 NE6       29.91  WCI  24
PHILIP         CLOUDY    32  29  88 NE13      29.92F WCI  22
PINE RIDGE     FLURRIES  32  29  88 NE9       29.87R WCI  24
SPEARFISH      CLOUDY    28  27  93 E9        29.89R WCI  20
WINNER         CLOUDY    33  29  85 NE17      29.92F WCI  22
$$

SDZ004>011-016>023-039-040-230800-
NORTHEAST SOUTH DAKOTA

CITY           SKY/WX    TMP DP  RH WIND       PRES   REMARKS
ABERDEEN       CLEAR     26  21  81 N8        29.99R WCI  18
WATERTOWN      PTCLDY    27  23  85 N8        29.92R WCI  19
BROOKINGS      CLOUDY    30  27  88 N15       29.90S WCI  19
SISSETON         N/A     29  26  89 N15       29.93R WCI  18
$$

SDZ017-020-022-023-036>040-048>070-230800-
SOUTHEAST SOUTH DAKOTA

CITY           SKY/WX    TMP DP  RH WIND       PRES   REMARKS
SIOUX FALLS    CLOUDY    34  31  88 N14G26    29.87F WCI  25
HURON          CLOUDY    31  26  82 N9        29.96R WCI  23
CHAMBERLAIN    CLOUDY    33  29  86 NE9       29.94F WCI  25
MITCHELL       CLOUDY    33  30  88 N12       29.94S WCI  24
YANKTON        CLOUDY    36  30  80 N15G22    29.87S
$$

ABBREVIATIONS USED IN REMARKS
   TC - TEMPERATURE IN CELSIUS
  WCI - WIND CHILL INDEX
   HX - HEAT INDEX
  VSB - VISIBILITY





USA.gov is the U.S. government's official web portal to all federal, state and local government web resources and services.